{"data":{"norad_id":45254,"intl_designator":"2020-015A","name":"MERIDIAN 9","alt_names":[],"object_type":"PAYLOAD","status":"ACTIVE","operator":null,"country":"CIS","launch_date":"2020-02-20","launch_site_code":"PLMSC","launch_vehicle":null,"mission":null,"orbit_class":"UNKNOWN","rcs_meters":null,"size_class":null,"mass_kg":null,"dimensions":null,"purposes":[],"wikipedia_slug":null,"has_3d_model":false,"image_url":null,"decayed_at":null,"tle_current":{"epoch":"2026-09-19T04:21:52.639200Z","epoch_age_seconds":178749,"freshness":"STALE","line1":"1 45254U 20015A   26262.18185925  .00000026  00000+0  00000+0 0  9991","line2":"2 45254  65.5409 309.1171 6829482 276.3211  16.1200  2.00616821 48170","mean_motion":2.00616821,"eccentricity":0.6829482,"inclination_deg":65.5409,"raan_deg":309.1171,"arg_perigee_deg":276.3211,"mean_anomaly_deg":16.12,"bstar":0,"rev_number":4817,"period_min":717.7862717703,"perigee_km":2041.3798089408,"apogee_km":38313.647302996,"semimajor_km":26555.650555968,"source":"CELESTRAK","updated_at":"2026-09-20T09:00:14.622800Z"}}}